Regional Weather Roundup
Issued by NWS

Home | Current Version | Previous Version | Graphics & Text | Print | Product List | Glossary On
Versions: 1 2 3 4 5 6 7 8 9 10 11 12 13 14 15 16 17 18 19 20 21 22 23 24 25 26 27 28 29 30 31 32 33 34 35 36 37 38 39 40 41 42 43 44 45 46 47 48 49 50
516
ASUS44 KJAN 301410
RWRMS

MISSISSIPPI HOURLY WEATHER ROUNDUP
NATIONAL WEATHER SERVICE JACKSON MS
900 AM CDT TUE SEP 30 2014

NOTE: "FAIR: INDICATES FEW OR NO CLOUDS BELOW 12,000 FEET WITH NO
SIGNIFICANT WEATHER AND/OR OBSTRUCTIONS TO VISIBILITY.

MSZ001>002-007>008-010>013-018>021-025>028-034>036-301500-
NORTHWEST MISSISSIPPI

CITY           SKY/WX    TMP DP  RH WIND       PRES   REMARKS
CLARKSDALE     FAIR      72  64  78 N3        29.96S
CLEVELAND      FAIR      73  66  80 CALM      29.94S
GREENWOOD      SUNNY     71  63  75 CALM      29.94S
GREENVILLE     SUNNY     73  62  68 NE3       29.94S
GRENADA        FAIR      70  66  88 E5        29.95S
OLIVE BRANCH   MOSUNNY   70  66  88 CALM      29.96S
OXFORD         FAIR      68  63  83 SE5       29.97F
TUNICA         SUNNY     70  59  68 N3        29.96F
$$

MSZ003>006-009-014>017-022>024-029>033-037>039-301500-
NORTHEAST MISSISSIPPI

CITY           SKY/WX    TMP DP  RH WIND       PRES   REMARKS
COLUMBUS AFB   MOSUNNY   72  66  83 SE8       29.97R
CORINTH        FAIR      68  61  77 CALM      29.96S
GOLDN TRIANGLE SUNNY     72  64  78 SE7       29.96S
STARKVILLE     FAIR      70  66  88 SE5       29.96S
TUPELO         SUNNY     71  64  78 S5        29.96S
$$

MSZ040-058-301500-
CENTRAL MISSISSIPPI

CITY           SKY/WX    TMP DP  RH WIND       PRES   REMARKS
JACKSON INTL   SUNNY     76  69  79 CALM      29.94R
JACKSON HAWKNS SUNNY     76  68  76 SE6       29.94S
MERIDIAN KEY   CLOUDY    71  68  90 E6        29.95S
MERIDIAN NAS   CLOUDY    68  67  96 E6        29.96S
RAYMOND        FAIR      75  70  83 CALM      29.94S
VICKSBURG      SUNNY     75  66  73 E3        29.94R
$$

MSZ059>079-301500-
SOUTH MISSISSIPPI

CITY           SKY/WX    TMP DP  RH WIND       PRES   REMARKS
BROOKHAVEN     FAIR      73  70  88 CALM      29.95S
COLUMBIA       FAIR      75  72  88 SE5       29.92R
HATTIESBURG    SUNNY     74  70  87 VRB3      29.94R
MCCOMB         SUNNY     76  69  79 CALM      29.93R
NATCHEZ        PTSUNNY   75  70  83 SE3       29.93S
PINE BELT      SUNNY     73  68  83 E5        29.95R
$$

MSZ080>082-301500-
COASTAL MISSISSIPPI

CITY           SKY/WX    TMP DP  RH WIND       PRES   REMARKS
BAY ST LOUIS   MOSUNNY   75  70  83 VRB5      29.91S
BILOXI         SUNNY     76  73  92 NE6       29.91S
PASCAGOULA     CLOUDY    74  71  91 NE6       29.92R
GULFPORT       SUNNY     77  71  82 E8        29.90S
$$



USA.gov is the U.S. government's official web portal to all federal, state and local government web resources and services.